FW0878 Weather Reports


Display with metric or nautical units.
time (UTC)temp
F
wind
direction
speed
MPH
gust
MPH
rain 1hr
in
rain 24hr
in
rain mn
in
humidity
%
barometer
mb
20260903175808 42 339 0.0 1.0 0.00 0.03 0.03 86 1018.7
20260903175307 42 338 0.0 1.0 0.00 0.03 0.03 86 1018.7
20260903174808 42 294 0.0 1.0 0.00 0.03 0.03 86 1018.6
20260903174307 41 291 0.0 1.0 0.00 0.03 0.03 86 1018.7
20260903173807 41 338 0.0 1.0 0.00 0.03 0.03 86 1018.7
20260903172307 42 315 0.0 1.0 0.00 0.03 0.03 86 1018.6
20260903171307 42 316 0.0 1.0 0.00 0.03 0.03 86 1019.0
20260903170307 42 292 0.0 1.0 0.00 0.03 0.03 86 1019.0
20260903165807 42 314 0.0 1.0 0.00 0.03 0.03 85 1019.0
20260903165306 42 295 0.0 1.0 0.00 0.03 0.03 85 1019.1
20260903164807 42 338 0.0 0.0 0.00 0.03 0.03 85 1019.0
20260903163806 42 338 0.0 0.0 0.00 0.03 0.03 84 1019.1
20260903163307 43 338 0.0 1.0 0.00 0.03 0.03 84 1019.2
20260903162806 43 339 0.0 1.0 0.00 0.03 0.03 84 1019.3
20260903162308 43 0 1.0 1.0 0.00 0.03 0.03 84 1019.3
20260903161306 43 338 1.0 2.0 0.00 0.03 0.03 84 1019.4
20260903160806 43 338 1.0 1.0 0.00 0.03 0.03 84 1019.5
20260903160306 43 21 1.0 1.0 0.00 0.03 0.03 84 1019.6
20260903155807 43 338 0.0 1.0 0.00 0.03 0.03 84 1019.5
20260903155306 43 338 0.0 0.0 0.00 0.03 0.03 83 1019.6
20260903154807 44 338 0.0 1.0 0.00 0.03 0.03 83 1019.6
20260903154307 44 0 0.0 0.0 0.00 0.03 0.03 83 1019.3
20260903153806 44 0 0.0 1.0 0.00 0.03 0.03 83 1019.5
20260903153306 44 0 0.0 1.0 0.00 0.03 0.03 83 1019.6
20260903152807 44 0 0.0 0.0 0.00 0.03 0.03 82 1019.3
20260903152307 44 0 0.0 1.0 0.00 0.03 0.03 82 1019.4
20260903151806 45 0 0.0 1.0 0.00 0.03 0.03 82 1019.4
20260903150807 45 2 0.0 1.0 0.00 0.03 0.03 82 1019.5
20260903150306 45 45 0.0 1.0 0.00 0.03 0.03 82 1019.5
20260903145807 45 68 0.0 0.0 0.00 0.03 0.03 82 1019.6
20260903145308 45 45 0.0 1.0 0.00 0.03 0.03 82 1019.6
20260903144806 46 0 0.0 1.0 0.00 0.03 0.03 82 1019.7
20260903144308 46 1 0.0 1.0 0.00 0.03 0.03 82 1019.7
20260903143806 46 20 0.0 2.0 0.00 0.03 0.03 82 1019.5
20260903142808 46 22 1.0 2.0 0.00 0.03 0.03 82 1019.5
20260903142306 46 338 0.0 1.0 0.00 0.03 0.03 82 1019.5
20260903141807 46 338 0.0 1.0 0.00 0.03 0.03 82 1019.7
20260903141307 47 340 1.0 2.0 0.00 0.03 0.03 81 1019.6
20260903140807 47 0 1.0 2.0 0.00 0.03 0.03 81 1019.5
20260903140307 47 0 1.0 1.0 0.00 0.03 0.03 81 1019.6
20260903135806 47 359 1.0 1.0 0.00 0.03 0.03 81 1019.6
20260903135307 47 0 1.0 1.0 0.00 0.03 0.03 81 1019.5
20260903134807 47 338 0.0 1.0 0.00 0.03 0.03 81 1019.8
20260903134306 48 338 0.0 1.0 0.00 0.03 0.03 81 1019.6
20260903133807 48 0 0.0 0.0 0.00 0.03 0.03 81 1019.8
20260903133307 48 338 0.0 1.0 0.00 0.03 0.03 81 1019.7
20260903132807 49 0 0.0 1.0 0.00 0.03 0.03 81 1019.6
20260903132308 49 338 0.0 1.0 0.00 0.03 0.03 81 1019.7
20260903131806 49 317 0.0 1.0 0.00 0.03 0.03 81 1019.7
20260903130807 49 338 1.0 2.0 0.00 0.03 0.03 81 1019.9
20260903130307 49 293 1.0 2.0 0.00 0.03 0.03 82 1019.8
20260903125807 49 292 1.0 1.0 0.00 0.03 0.03 82 1019.7
20260903125307 48 315 1.0 1.0 0.00 0.03 0.03 82 1019.9
20260903124806 48 316 1.0 1.0 0.00 0.03 0.03 83 1019.7
20260903123306 47 315 0.0 1.0 0.00 0.03 0.03 84 1019.9
20260903122807 47 271 0.0 1.0 0.00 0.03 0.03 83 1019.9
20260903122307 47 271 0.0 1.0 0.00 0.03 0.03 83 1019.7
20260903121807 47 291 0.0 0.0 0.00 0.03 0.03 82 1019.7
20260903121306 47 270 0.0 0.0 0.00 0.03 0.03 81 1019.7
20260903120807 48 271 0.0 0.0 0.00 0.03 0.03 81 1019.7
20260903120307 48 271 0.0 1.0 0.00 0.03 0.03 80 1019.7
20260903115806 48 271 0.0 1.0 0.00 0.03 0.03 80 1019.6
20260903115306 49 336 0.0 0.0 0.00 0.03 0.03 79 1019.6
20260903114806 49 315 0.0 0.0 0.00 0.03 0.03 78 1019.4
20260903114306 49 315 0.0 1.0 0.00 0.03 0.03 78 1019.5
20260903113807 50 271 0.0 1.0 0.00 0.03 0.03 76 1019.3
20260903113307 50 247 0.0 0.0 0.00 0.03 0.03 76 1019.3
20260903112806 51 294 0.0 1.0 0.00 0.03 0.03 75 1019.3
20260903112306 51 339 0.0 1.0 0.00 0.03 0.03 75 1019.4
20260903111806 51 339 1.0 1.0 0.00 0.03 0.03 75 1019.1
20260903110806 51 269 1.0 2.0 0.00 0.03 0.03 75 1019.1
20260903110306 51 270 1.0 2.0 0.00 0.03 0.03 75 1019.0
20260903105806 52 269 1.0 1.0 0.00 0.03 0.03 75 1018.9
20260903105307 52 269 1.0 2.0 0.00 0.03 0.03 74 1019.0
20260903104306 52 225 1.0 2.0 0.00 0.03 0.03 73 1018.9
20260903103808 53 202 0.0 0.0 0.00 0.03 0.03 72 1018.8
20260903102806 53 248 0.0 0.0 0.00 0.03 0.03 71 1018.5
20260903101306 54 226 2.0 3.0 0.00 0.03 0.03 70 1018.6
20260903100807 54 204 2.0 7.0 0.00 0.03 0.03 69 1018.5
20260903100307 55 248 2.0 7.0 0.00 0.03 0.03 69 1018.5
20260903095807 55 242 2.0 5.0 0.00 0.03 0.03 69 1018.1
20260903095307 55 181 2.0 5.0 0.00 0.03 0.03 69 1018.4
20260903094807 55 270 2.0 6.0 0.00 0.03 0.03 68 1018.3
20260903094306 55 291 2.0 5.0 0.00 0.03 0.03 68 1018.1
20260903093807 55 248 1.0 3.0 0.00 0.03 0.03 68 1018.1
20260903092806 56 290 1.0 2.0 0.00 0.03 0.03 67 1017.7
20260903092307 56 248 1.0 2.0 0.00 0.03 0.03 67 1017.7
20260903091806 56 226 1.0 2.0 0.00 0.03 0.03 66 1017.8
20260903091306 56 249 1.0 2.0 0.00 0.03 0.03 66 1017.7
20260903090806 56 223 1.0 3.0 0.00 0.03 0.03 65 1017.5
20260903090306 57 270 1.0 3.0 0.00 0.03 0.03 64 1017.5
20260903085807 57 250 2.0 5.0 0.00 0.03 0.03 64 1017.4
20260903085307 57 247 3.0 6.0 0.00 0.03 0.03 63 1017.3
20260903084808 58 249 3.0 6.0 0.00 0.03 0.03 63 1016.9
20260903083807 58 225 2.0 9.0 0.00 0.03 0.03 63 1016.9
20260903083307 58 265 2.0 6.0 0.00 0.03 0.03 63 1016.9
20260903082806 58 248 2.0 5.0 0.00 0.03 0.03 62 1016.9
20260903082306 58 225 2.0 7.0 0.00 0.03 0.03 62 1016.8
20260903081307 58 247 3.0 6.0 0.00 0.03 0.03 62 1016.7
20260903080307 58 225 1.0 7.0 0.00 0.03 0.03 62 1016.3
20260903075806 58 183 3.0 6.0 0.00 0.03 0.03 62 1016.3
20260903075307 58 202 1.0 3.0 0.00 0.03 0.03 62 1016.2
20260903074807 59 248 1.0 7.0 0.00 0.03 0.03 61 1016.1
20260903074309 59 226 3.0 7.0 0.00 0.03 0.03 60 1016.1
20260903073806 59 204 3.0 8.0 0.00 0.03 0.03 60 1016.1
20260903073307 59 181 3.0 8.0 0.00 0.03 0.03 60 1015.9
20260903072807 59 266 2.0 7.0 0.00 0.03 0.03 60 1015.8
20260903072307 60 244 4.0 8.0 0.00 0.03 0.03 60 1015.7
20260903071306 60 249 4.0 9.0 0.00 0.03 0.03 59 1015.5
20260903070806 60 269 4.0 12.0 0.00 0.03 0.03 59 1015.7
20260903070306 60 161 4.0 12.0 0.00 0.03 0.03 58 1015.8
20260903065806 60 271 4.0 10.0 0.00 0.03 0.03 58 1015.6
20260903065307 61 247 3.0 10.0 0.00 0.03 0.03 58 1015.4
20260903064806 61 222 3.0 7.0 0.00 0.03 0.03 57 1015.3
20260903064308 61 226 3.0 8.0 0.00 0.03 0.03 56 1015.1
20260903063307 61 226 4.0 8.0 0.00 0.03 0.03 56 1014.9
20260903062806 62 205 5.0 8.0 0.00 0.03 0.03 56 1015.0
20260903062307 62 267 4.0 8.0 0.00 0.03 0.03 56 1014.7
20260903061807 62 267 4.0 8.0 0.00 0.03 0.03 56 1014.8
20260903061308 62 265 3.0 10.0 0.00 0.03 0.03 56 1014.7
20260903060807 62 202 6.0 10.0 0.00 0.03 0.03 55 1014.6
20260903060306 63 312 3.0 8.0 0.00 0.03 0.03 54 1014.5
20260903055807 63 269 5.0 9.0 0.00 0.03 0.03 53 1014.6
20260903055306 64 226 3.0 10.0 0.00 0.03 0.03 52 1014.3
20260903054807 65 269 4.0 13.0 0.00 0.03 0.03 50 1014.4
20260903054308 65 225 5.0 13.0 0.00 0.03 0.03 46 1014.5
20260903053807 65 162 5.0 13.0 0.00 0.03 0.03 46 1014.4
20260903052807 65 291 5.0 9.0 0.00 0.03 0.03 49 1014.2
20260903051806 64 246 5.0 12.0 0.00 0.03 0.03 48 1014.1
20260903051306 63 339 3.0 9.0 0.00 0.03 0.03 50 1014.0
20260903050806 63 205 6.0 12.0 0.00 0.03 0.03 52 1014.0
20260903050306 66 226 4.0 8.0 0.00 0.03 0.03 50 1014.0
20260903045806 65 270 1.0 10.0 0.00 0.03 0.03 52 1013.8
20260903045306 65 185 2.0 7.0 0.00 0.03 0.03 52 1013.9
20260903044806 64 246 2.0 8.0 0.00 0.03 0.03 52 1013.7
20260903044308 64 247 4.0 8.0 0.00 0.03 0.03 52 1014.0
20260903043807 64 247 4.0 12.0 0.00 0.03 0.03 53 1013.8
20260903043306 64 268 4.0 10.0 0.00 0.03 0.03 53 1013.9
20260903042808 64 45 3.0 7.0 0.00 0.03 0.03 54 1013.8
20260903042307 63 204 3.0 13.0 0.00 0.03 0.03 55 1013.6
20260903041807 63 289 6.0 13.0 0.00 0.03 0.03 56 1013.7
20260903041306 63 226 6.0 12.0 0.00 0.03 0.03 56 1013.6
20260903040807 64 270 5.0 14.0 0.00 0.03 0.03 54 1013.4
20260903040307 63 249 5.0 14.0 0.00 0.03 0.03 54 1013.3
20260903035806 63 229 6.0 16.0 0.00 0.03 0.03 54 1013.3
20260903035306 63 270 6.0 16.0 0.00 0.03 0.03 53 1013.3
20260903034806 63 114 7.0 15.0 0.00 0.03 0.03 54 1013.3
20260903034307 62 204 7.0 15.0 0.00 0.03 0.03 54 1013.3
20260903033306 60 290 6.0 12.0 0.00 0.03 0.03 58 1013.5
20260903032807 60 244 5.0 16.0 0.00 0.03 0.03 60 1013.5
20260903032307 60 290 9.0 16.0 0.00 0.03 0.03 61 1013.4
20260903031807 61 205 6.0 15.0 0.00 0.03 0.03 64 1013.5
20260903031307 64 203 5.0 10.0 0.00 0.03 0.03 61 1013.2
20260903030306 64 229 3.0 8.0 0.00 0.03 0.03 63 1013.0
20260903025806 63 353 2.0 8.0 0.00 0.03 0.03 68 1013.0
20260903025306 62 94 3.0 10.0 0.00 0.03 0.03 70 1013.1
20260903024307 59 271 4.0 10.0 0.00 0.03 0.03 74 1013.3
20260903022809 58 266 3.0 9.0 0.03 0.03 0.03 76 1013.2
20260903022306 57 356 5.0 15.0 0.03 0.03 0.03 77 1013.2
20260903021808 56 294 5.0 10.0 0.03 0.03 0.03 78 1013.3
20260903021306 56 205 4.0 14.0 0.03 0.03 0.03 80 1013.3
20260903020807 55 225 6.0 14.0 0.03 0.03 0.03 81 1013.1
20260903015806 55 293 6.0 16.0 0.03 0.03 0.03 85 1013.4
20260903015307 55 271 6.0 12.0 0.03 0.03 0.03 87 1013.4
20260903014808 55 228 3.0 8.0 0.03 0.03 0.03 89 1013.2
20260903014306 55 290 3.0 8.0 0.03 0.03 0.03 89 1013.0
20260903013308 57 245 4.0 13.0 0.01 0.01 0.01 83 1013.0
20260903012806 61 204 5.0 13.0 0.00 0.00 0.00 72 1013.1
20260903012307 62 249 1.0 7.0 0.00 0.00 0.00 63 1012.6
20260903011806 62 313 3.0 7.0 0.00 0.00 0.00 61 1012.6
20260903011306 62 268 3.0 9.0 0.00 0.00 0.00 61 1012.4
20260903010807 63 359 3.0 17.0 0.00 0.00 0.00 60 1012.5
20260903010307 64 290 3.0 9.0 0.00 0.00 0.00 59 1012.4
20260903005806 65 252 4.0 10.0 0.00 0.00 0.00 57 1012.6
20260903005306 64 161 3.0 7.0 0.00 0.00 0.00 58 1012.5
20260903004806 63 248 2.0 7.0 0.00 0.00 0.00 61 1012.5
20260903004306 61 250 3.0 7.0 0.00 0.00 0.00 62 1012.2
20260903003806 61 69 3.0 7.0 0.00 0.00 0.00 62 1012.4
20260903003308 61 294 2.0 8.0 0.00 0.00 0.00 64 1012.3
20260903002806 60 200 3.0 9.0 0.00 0.00 0.00 65 1012.1
20260903001806 60 312 3.0 10.0 0.00 0.00 0.00 68 1012.1
20260903000806 59 313 3.0 9.0 0.00 0.00 0.00 70 1012.1
20260902235806 59 248 5.0 16.0 0.00 0.00 0.00 69 1012.3
20260902235307 60 271 7.0 13.0 0.00 0.00 0.00 68 1012.3
20260902233307 59 113 2.0 8.0 0.00 0.00 0.00 68 1011.8
20260902232806 59 248 3.0 7.0 0.00 0.00 0.00 68 1011.8
20260902232307 59 226 2.0 7.0 0.00 0.00 0.00 68 1011.7
20260902231807 59 338 1.0 2.0 0.00 0.00 0.00 67 1011.8
20260902230809 58 270 2.0 6.0 0.00 0.00 0.00 67 1011.4
20260902230306 59 339 3.0 6.0 0.00 0.00 0.00 67 1011.4
20260902225806 59 337 1.0 6.0 0.00 0.00 0.00 66 1011.3
20260902225306 59 272 3.0 7.0 0.00 0.00 0.00 66 1011.3
20260902224807 59 314 2.0 7.0 0.00 0.00 0.00 65 1011.1
20260902224306 59 250 1.0 6.0 0.00 0.00 0.00 65 1011.2
20260902223306 61 178 2.0 6.0 0.00 0.00 0.00 63 1011.0
20260902222808 60 248 2.0 6.0 0.00 0.00 0.00 63 1011.0
20260902222306 59 66 3.0 7.0 0.00 0.00 0.00 64 1010.9
20260902221806 58 315 3.0 8.0 0.00 0.00 0.00 65 1010.9
20260902220806 58 155 3.0 6.0 0.00 0.00 0.00 67 1010.8
20260902220307 57 335 1.0 5.0 0.00 0.00 0.00 68 1011.0
20260902215806 56 339 3.0 7.0 0.00 0.00 0.00 69 1010.8
20260902215307 55 292 1.0 5.0 0.00 0.00 0.00 71 1010.9
20260902214807 53 274 2.0 5.0 0.00 0.00 0.00 75 1010.8
20260902214307 52 105 1.0 3.0 0.00 0.00 0.00 77 1011.0
20260902213806 52 312 1.0 1.0 0.00 0.00 0.00 76 1011.1
20260902213306 52 295 0.0 2.0 0.00 0.00 0.00 75 1010.9
20260902212806 52 317 1.0 2.0 0.00 0.00 0.00 75 1010.7
20260902212308 52 338 1.0 3.0 0.00 0.00 0.00 75 1010.7
20260902211808 52 291 1.0 3.0 0.00 0.00 0.00 75 1010.5
20260902211307 51 312 1.0 3.0 0.00 0.00 0.00 75 1010.5
20260902210807 51 293 1.0 2.0 0.00 0.00 0.00 75 1010.4
20260902210306 51 338 1.0 1.0 0.00 0.00 0.00 74 1010.3
20260902205807 51 338 0.0 2.0 0.00 0.00 0.00 74 1010.0
20260902205307 51 339 1.0 2.0 0.00 0.00 0.00 74 1010.2
20260902204806 51 21 1.0 2.0 0.00 0.00 0.00 73 1009.8
20260902204307 51 358 0.0 3.0 0.00 0.00 0.00 73 1009.9
20260902203807 51 292 2.0 3.0 0.00 0.00 0.00 73 1009.6
20260902203306 51 19 1.0 3.0 0.00 0.00 0.00 73 1009.8
20260902202806 51 324 2.0 6.0 0.00 0.00 0.00 72 1009.5
20260902202307 51 359 1.0 5.0 0.00 0.00 0.00 72 1009.5
20260902201806 51 339 1.0 3.0 0.00 0.00 0.00 72 1009.7
20260902201306 51 274 1.0 2.0 0.00 0.00 0.00 72 1009.7
20260902200807 51 293 1.0 2.0 0.00 0.00 0.00 73 1009.9
20260902200307 51 20 0.0 3.0 0.00 0.00 0.00 73 1009.9
20260902195808 51 337 1.0 3.0 0.00 0.00 0.00 73 1009.8
20260902195307 51 337 1.0 3.0 0.00 0.00 0.00 72 1009.8
20260902194306 52 337 1.0 3.0 0.00 0.00 0.00 71 1010.0
20260902193806 52 22 1.0 3.0 0.00 0.00 0.00 71 1009.8
20260902192807 52 19 1.0 5.0 0.00 0.00 0.00 70 1009.9
20260902192307 52 292 1.0 3.0 0.00 0.00 0.00 70 1009.9
20260902191807 52 356 2.0 3.0 0.00 0.00 0.00 70 1009.8
20260902191307 52 273 1.0 3.0 0.00 0.00 0.00 70 1009.8
20260902190306 52 292 1.0 3.0 0.00 0.00 0.00 70 1009.6
20260902185307 52 294 1.0 5.0 0.00 0.00 0.00 70 1009.4
20260902184808 51 312 1.0 3.0 0.00 0.00 0.00 70 1009.1
20260902183807 51 248 1.0 5.0 0.00 0.00 0.00 71 1009.3
20260902183307 51 249 2.0 5.0 0.00 0.00 0.00 72 1009.2
20260902182806 51 317 2.0 5.0 0.00 0.00 0.00 72 1009.2
20260902182306 50 112 1.0 5.0 0.00 0.00 0.00 73 1009.2
20260902181807 50 276 2.0 5.0 0.00 0.00 0.00 74 1009.2
20260902181306 49 313 1.0 2.0 0.00 0.00 0.00 74 1009.0
20260902180806 50 314 1.0 2.0 0.00 0.00 0.00 74 1009.1
20260902180306 50 269 1.0 3.0 0.00 0.00 0.00 73 1008.9